Regional Weather Roundup
Issued by NWS

Home | Current Version | Previous Version | Text Only | Print | Product List | Glossary Off
Versions: 1 2 3 4 5 6 7 8 9 10 11 12 13 14 15 16 17 18 19 20 21 22 23 24 25 26 27 28 29 30 31 32 33 34 35 36 37 38 39 40 41 42 43 44 45 46 47 48 49 50

000
ASUS43 KBIS 261310
RWRND

NORTH DAKOTA REGIONAL WEATHER ROUNDUP
NATIONAL WEATHER SERVICE BISMARCK ND
800 AM CDT SUN APR 26 2015

NOTE: "FAIR" INDICATES FEW OR NO CLOUDS BELOW 12,000 FEET WITH NO
SIGNIFICANT WEATHER AND/OR OBSTRUCTIONS TO VISIBILITY.


NDZ001>003-009>011-017-261400-
NORTHWEST NORTH DAKOTA

CITY           SKY/WX    TMP DP  RH WIND       PRES   REMARKS
WILLISTON      CLOUDY    38  35  89 NW13      30.04R
MINOT          LGT RAIN  47  45  93 S3        29.99R FOG
MINOT AFB      DRIZZLE   46  46 100 SW6       29.98R FOG
$$

NDZ018>021-031>035-040>046-261400-
SOUTHWEST NORTH DAKOTA

CITY           SKY/WX    TMP DP  RH WIND       PRES   REMARKS
BISMARCK       CLOUDY    47  46  97 E8        30.02R FOG
DICKINSON      CLOUDY    42  38  85 NW10      29.98S
GARRISON         N/A     45  45 100 S6        30.00R
HETTINGER ARPT CLOUDY    43  40  89 N12       29.99R
$$

NDZ004>008-012>016-024-026-027-054-261400-
NORTHEAST NORTH DAKOTA

CITY           SKY/WX    TMP DP  RH WIND       PRES   REMARKS
GRAND FORKS    MOSUNNY   41  29  62 SE10      30.10R
GRND FRKS AFB  SUNNY     41  32  69 S6        30.10R
DEVILS LAKE    CLOUDY    45  39  81 SE7       30.05R
$$

NDZ022-023-025-028>030-036>039-047>053-261400-
SOUTHEAST NORTH DAKOTA

CITY           SKY/WX    TMP DP  RH WIND       PRES   REMARKS
FARGO          SUNNY     45  16  31 SE9       30.09S
JAMESTOWN      PTSUNNY   49  37  63 SE9       30.04R
$$



USA.gov is the U.S. government's official web portal to all federal, state and local government web resources and services.